When you browse on this site, cookies collect data to enhance your experience and personalize the content and advertising you see.
Visit our Privacy Policy to learn more. By continuing to use the site, you agree to this use of cookies and data.
  • In Lithuania
  • List of Countries
  • For 7 days
  • Water Temperature
  • Satellite Maps
  • Weather Map
  • Weather Widgets
  • user-avatar
    Login

    Hourly Weather Krasnodonskiy

    Today, 21 April, Sunday

    Time Temperature Precipitation Wind Pressure Humidity
    00:00 +4°C° 0 mm 3 mps 766 mmHg 52%
    01:00 +4°C° 0 mm 3 mps 766 mmHg 53%
    02:00 +4°C° 0 mm 3 mps 766 mmHg 54%
    03:00 +3°C° 0 mm 3 mps 766 mmHg 55%
    04:00 +3°C° 0 mm 3 mps 766 mmHg 56%
    05:00 +3°C° 0 mm 3 mps 766 mmHg 57%
    06:00 +3°C° 0 mm 3 mps 766 mmHg 59%
    07:00 +5°C° 0 mm 3 mps 766 mmHg 53%
    08:00 +7°C° 0 mm 4 mps 767 mmHg 48%
    09:00 +10°C° 0 mm 5 mps 767 mmHg 42%
    10:00 +12°C° 0 mm 5 mps 766 mmHg 39%
    11:00 +13°C° 0 mm 5 mps 766 mmHg 36%
    12:00 +14°C° 0 mm 6 mps 766 mmHg 33%
    13:00 +14°C° 0 mm 6 mps 766 mmHg 33%
    14:00 +14°C° 0 mm 6 mps 766 mmHg 33%
    15:00 +15°C° 0 mm 6 mps 766 mmHg 33%
    16:00 +14°C° 0 mm 5 mps 766 mmHg 37%
    17:00 +13°C° 0 mm 4 mps 766 mmHg 41%
    18:00 +13°C° 0 mm 4 mps 766 mmHg 44%
    19:00 +11°C° 0 mm 4 mps 766 mmHg 46%
    20:00 +10°C° 0 mm 4 mps 766 mmHg 47%
    21:00 +8°C° 0 mm 4 mps 766 mmHg 48%
    22:00 +7°C° 0 mm 4 mps 766 mmHg 50%
    23:00 +7°C° 0 mm 3 mps 766 mmHg 51%

    Tomorrow, 22 April, Monday

    Time Temperature Precipitation Wind Pressure Humidity
    00:00 +7°C° 0 mm 3 mps 766 mmHg 52%
    01:00 +5°C° 0 mm 3 mps 766 mmHg 53%
    02:00 +5°C° 0 mm 3 mps 766 mmHg 55%
    03:00 +5°C° 0 mm 3 mps 766 mmHg 56%
    04:00 +4°C° 0 mm 3 mps 767 mmHg 58%
    05:00 +4°C° 0 mm 3 mps 767 mmHg 60%
    06:00 +4°C° 0 mm 3 mps 767 mmHg 61%
    07:00 +8°C° 0 mm 3 mps 767 mmHg 55%
    08:00 +10°C° 0 mm 4 mps 767 mmHg 49%
    09:00 +12°C° 0 mm 5 mps 767 mmHg 42%
    10:00 +13°C° 0 mm 5 mps 767 mmHg 39%
    11:00 +14°C° 0 mm 5 mps 767 mmHg 35%
    12:00 +15°C° 0 mm 4 mps 767 mmHg 32%
    13:00 +15°C° 0 mm 4 mps 767 mmHg 32%
    14:00 +15°C° 0 mm 4 mps 767 mmHg 32%
    15:00 +17°C° 0 mm 4 mps 766 mmHg 32%
    16:00 +16°C° 0 mm 3 mps 766 mmHg 36%
    17:00 +14°C° 0 mm 3 mps 766 mmHg 40%
    18:00 +14°C° 0 mm 3 mps 766 mmHg 44%
    19:00 +13°C° 0 mm 2 mps 767 mmHg 45%
    20:00 +12°C° 0 mm 2 mps 767 mmHg 47%
    21:00 +9°C° 0 mm 2 mps 767 mmHg 48%
    22:00 +9°C° 0 mm 2 mps 768 mmHg 49%
    23:00 +9°C° 0 mm 1 mps 768 mmHg 49%

    Day after tomorrow, 23 April, Tuesday

    Time Temperature Precipitation Wind Pressure Humidity
    00:00 +9°C° 0 mm 1 mps 768 mmHg 50%
    01:00 +9°C° 0 mm 1 mps 768 mmHg 50%
    02:00 +8°C° 0 mm 1 mps 768 mmHg 51%
    03:00 +8°C° 0 mm 1 mps 768 mmHg 52%
    04:00 +8°C° 0 mm 1 mps 768 mmHg 55%
    05:00 +8°C° 0 mm 1 mps 768 mmHg 57%
    06:00 +8°C° 0 mm 1 mps 769 mmHg 59%
    07:00 +10°C° 0 mm 1 mps 769 mmHg 57%
    08:00 +12°C° 0 mm 2 mps 769 mmHg 55%
    09:00 +13°C° 0 mm 2 mps 769 mmHg 52%
    10:00 +14°C° 0 mm 2 mps 769 mmHg 49%
    11:00 +15°C° 0 mm 2 mps 769 mmHg 46%
    12:00 +16°C° 0 mm 3 mps 769 mmHg 43%
    13:00 +16°C° 0 mm 3 mps 769 mmHg 42%
    14:00 +16°C° 0 mm 3 mps 769 mmHg 42%
    15:00 +16°C° 0 mm 2 mps 769 mmHg 42%
    16:00 +15°C° 0 mm 2 mps 769 mmHg 45%
    17:00 +15°C° 0 mm 2 mps 769 mmHg 48%
    18:00 +15°C° 0 mm 2 mps 769 mmHg 51%
    19:00 +14°C° 0 mm 2 mps 769 mmHg 51%
    20:00 +13°C° 0 mm 2 mps 769 mmHg 52%
    21:00 +13°C° 0 mm 2 mps 770 mmHg 53%
    22:00 +12°C° 0 mm 2 mps 770 mmHg 53%
    23:00 +12°C° 0 mm 2 mps 770 mmHg 54%

    24 April, Wednesday

    Time Temperature Precipitation Wind Pressure Humidity
    00:00 +12°C° 0 mm 2 mps 770 mmHg 54%
    01:00 +10°C° 0 mm 2 mps 769 mmHg 55%
    02:00 +10°C° 0 mm 2 mps 769 mmHg 55%
    03:00 +10°C° 0 mm 3 mps 769 mmHg 56%
    04:00 +9°C° 0 mm 3 mps 769 mmHg 59%
    05:00 +8°C° 0 mm 3 mps 769 mmHg 63%
    06:00 +8°C° 0 mm 3 mps 769 mmHg 66%
    07:00 +10°C° 0 mm 3 mps 769 mmHg 61%
    08:00 +12°C° 0 mm 4 mps 769 mmHg 57%
    09:00 +13°C° 0 mm 5 mps 769 mmHg 52%
    10:00 +13°C° 0.3 mm 4 mps 769 mmHg 55%
    11:00 +13°C° 0.3 mm 3 mps 769 mmHg 58%
    12:00 +13°C° 0.3 mm 3 mps 768 mmHg 62%
    13:00 +14°C° 0.3 mm 3 mps 768 mmHg 60%
    14:00 +15°C° 0.3 mm 4 mps 768 mmHg 59%
    15:00 +18°C° 0.3 mm 4 mps 767 mmHg 58%
    16:00 +17°C° 0.4 mm 4 mps 767 mmHg 61%
    17:00 +17°C° 0.4 mm 3 mps 767 mmHg 63%
    18:00 +17°C° 0.4 mm 2 mps 767 mmHg 66%
    19:00 +16°C° 0.1 mm 2 mps 767 mmHg 70%
    20:00 +15°C° 0.1 mm 2 mps 767 mmHg 74%
    21:00 +13°C° 0.1 mm 2 mps 767 mmHg 78%
    22:00 +13°C° 0 mm 2 mps 767 mmHg 80%
    23:00 +11°C° 0 mm 3 mps 767 mmHg 83%

    25 April, Thursday

    Time Temperature Precipitation Wind Pressure Humidity
    00:00 +11°C° 0 mm 3 mps 767 mmHg 85%
    01:00 +10°C° 0 mm 3 mps 767 mmHg 85%
    02:00 +10°C° 0 mm 2 mps 768 mmHg 85%
    03:00 +9°C° 0 mm 2 mps 768 mmHg 85%
    04:00 +9°C° 0 mm 2 mps 768 mmHg 84%
    05:00 +9°C° 0 mm 2 mps 768 mmHg 84%
    06:00 +9°C° 0 mm 2 mps 768 mmHg 83%
    07:00 +13°C° 0 mm 2 mps 769 mmHg 75%
    08:00 +15°C° 0 mm 2 mps 769 mmHg 67%
    09:00 +17°C° 0 mm 2 mps 769 mmHg 58%
    10:00 +18°C° 0 mm 3 mps 769 mmHg 53%
    11:00 +19°C° 0 mm 3 mps 769 mmHg 47%
    12:00 +20°C° 0 mm 3 mps 769 mmHg 42%
    13:00 +21°C° 0 mm 3 mps 769 mmHg 41%
    14:00 +21°C° 0 mm 3 mps 768 mmHg 40%
    15:00 +22°C° 0 mm 3 mps 768 mmHg 38%
    16:00 +21°C° 0 mm 2 mps 768 mmHg 42%
    17:00 +21°C° 0 mm 2 mps 768 mmHg 45%
    18:00 +22°C° 0 mm 1 mps 768 mmHg 49%
    19:00 +20°C° 0 mm 1 mps 768 mmHg 52%
    20:00 +18°C° 0 mm 1 mps 768 mmHg 55%
    21:00 +16°C° 0 mm 1 mps 768 mmHg 58%
    22:00 +16°C° 0 mm 2 mps 768 mmHg 58%
    23:00 +15°C° 0 mm 2 mps 768 mmHg 58%

    26 April, Friday

    Time Temperature Precipitation Wind Pressure Humidity
    00:00 +15°C° 0 mm 2 mps 768 mmHg 59%
    01:00 +15°C° 0 mm 2 mps 768 mmHg 61%
    02:00 +14°C° 0 mm 2 mps 768 mmHg 62%
    03:00 +14°C° 0 mm 2 mps 768 mmHg 64%
    04:00 +14°C° 0 mm 2 mps 768 mmHg 66%
    05:00 +13°C° 0 mm 2 mps 768 mmHg 69%
    06:00 +13°C° 0 mm 2 mps 768 mmHg 71%
    07:00 +15°C° 0 mm 2 mps 768 mmHg 65%
    08:00 +17°C° 0 mm 2 mps 768 mmHg 58%
    09:00 +20°C° 0 mm 2 mps 768 mmHg 52%
    10:00 +22°C° 0 mm 1 mps 767 mmHg 48%
    11:00 +23°C° 0 mm 1 mps 767 mmHg 44%
    12:00 +25°C° 0 mm 1 mps 766 mmHg 40%
    13:00 +24°C° 0 mm 1 mps 766 mmHg 41%
    14:00 +24°C° 0 mm 1 mps 766 mmHg 43%
    15:00 +24°C° 0 mm 1 mps 766 mmHg 44%
    16:00 +23°C° 0 mm 1 mps 765 mmHg 46%
    17:00 +23°C° 0 mm 1 mps 765 mmHg 48%
    18:00 +23°C° 0 mm 1 mps 765 mmHg 51%
    19:00 +22°C° 0 mm 1 mps 765 mmHg 53%
    20:00 +20°C° 0 mm 1 mps 765 mmHg 55%
    21:00 +19°C° 0 mm 1 mps 765 mmHg 57%
    22:00 +18°C° 0 mm 1 mps 765 mmHg 58%
    23:00 +16°C° 0 mm 1 mps 764 mmHg 60%
    Show more